Time,TemperatureF,DewpointF,PressureIn,WindDirection,WindDirectionDegrees,WindSpeedMPH,WindSpeedGustMPH,Humidity,HourlyPrecipIn,Conditions,Clouds,dailyrainin,SoftwareType,DateUTC
2013-05-27 00:02:00,52.0,52.0,-100.00,ENE,65,11.0,14.0,99,0.00,,,0.01,,2013-05-27 05:02:00,
2013-05-27 00:12:00,52.0,52.0,-100.00,East,85,10.0,15.0,99,0.00,,,0.01,,2013-05-27 05:12:00,
2013-05-27 00:22:00,53.0,52.0,-100.00,East,90,10.0,16.0,99,0.00,,,0.01,,2013-05-27 05:22:00,
2013-05-27 00:32:00,53.0,52.0,-100.00,East,100,13.0,17.0,99,0.00,,,0.01,,2013-05-27 05:32:00,
2013-05-27 00:42:00,53.0,52.0,-100.00,East,85,11.0,18.0,99,0.00,,,0.01,,2013-05-27 05:42:00,
2013-05-27 00:52:00,53.0,52.0,-100.00,East,90,9.0,15.0,99,0.00,,,0.01,,2013-05-27 05:52:00,
2013-05-27 01:01:00,53.0,52.0,-100.00,East,90,13.0,17.0,99,0.00,,,0.01,,2013-05-27 06:01:00,
2013-05-27 01:11:00,53.0,52.0,-100.00,ENE,75,14.0,17.0,99,0.00,,,0.01,,2013-05-27 06:11:00,
2013-05-27 01:21:00,53.0,52.0,-100.00,ENE,70,13.0,17.0,99,0.00,,,0.01,,2013-05-27 06:21:00,
2013-05-27 01:32:00,52.0,52.0,-100.00,East,80,16.0,18.0,99,0.00,,,0.01,,2013-05-27 06:32:00,
2013-05-27 01:42:00,52.0,52.0,-100.00,East,80,19.0,22.0,99,0.00,,,0.01,,2013-05-27 06:42:00,
2013-05-27 01:52:00,52.0,52.0,-100.00,East,80,19.0,22.0,99,0.00,,,0.01,,2013-05-27 06:52:00,
2013-05-27 02:02:00,53.0,52.0,-100.00,East,90,18.0,24.0,99,0.00,,,0.01,,2013-05-27 07:02:00,
2013-05-27 04:11:00,54.0,54.0,-100.00,SE,140,4.0,7.0,99,0.00,,,0.01,,2013-05-27 09:11:00,
2013-05-27 04:21:00,54.0,54.0,-100.00,SE,145,7.0,11.0,99,0.00,,,0.01,,2013-05-27 09:21:00,
2013-05-27 04:33:00,54.0,54.0,-100.00,SE,130,6.0,11.0,99,0.00,,,0.01,,2013-05-27 09:33:00,
2013-05-27 04:42:00,54.0,54.0,-100.00,SE,125,8.0,12.0,99,0.00,,,0.01,,2013-05-27 09:42:00,
2013-05-27 04:52:00,54.0,54.0,-100.00,SE,125,6.0,11.0,99,0.00,,,0.01,,2013-05-27 09:52:00,
2013-05-27 05:02:00,54.0,54.0,-100.00,SE,125,6.0,11.0,99,0.00,,,0.01,,2013-05-27 10:02:00,
2013-05-27 05:12:00,54.0,54.0,-100.00,ESE,120,6.0,9.0,99,0.00,,,0.01,,2013-05-27 10:12:00,
2013-05-27 05:22:00,54.0,54.0,-100.00,ESE,110,7.0,9.0,99,0.00,,,0.01,,2013-05-27 10:22:00,
2013-05-27 05:32:00,54.0,54.0,-100.00,East,100,9.0,11.0,99,0.00,,,0.01,,2013-05-27 10:32:00,
2013-05-27 06:32:00,54.0,54.0,-100.00,NNE,15,7.0,11.0,99,0.00,,,0.01,,2013-05-27 11:32:00,
2013-05-27 06:42:00,54.0,54.0,-100.00,NNE,25,9.0,11.0,99,0.01,,,0.01,,2013-05-27 11:42:00,
2013-05-27 06:52:00,54.0,54.0,-100.00,NE,40,10.0,12.0,99,0.01,,,0.01,,2013-05-27 11:52:00,
2013-05-27 07:42:00,54.0,54.0,-100.00,East,100,13.0,17.0,99,0.00,,,0.01,,2013-05-27 12:42:00,
2013-05-27 07:52:00,54.0,54.0,-100.00,East,95,14.0,21.0,99,0.00,,,0.01,,2013-05-27 12:52:00,
2013-05-27 08:01:00,54.0,54.0,-100.00,East,90,16.0,21.0,99,0.00,,,0.01,,2013-05-27 13:01:00,
2013-05-27 08:11:00,54.0,54.0,-100.00,East,90,16.0,22.0,99,0.00,,,0.01,,2013-05-27 13:11:00,
2013-05-27 09:01:00,55.0,55.0,-100.00,East,100,11.0,15.0,99,0.00,,,0.01,,2013-05-27 14:01:00,
2013-05-27 09:11:00,55.0,55.0,-100.00,East,95,12.0,15.0,99,0.00,,,0.01,,2013-05-27 14:11:00,
2013-05-27 09:21:00,56.0,55.0,-100.00,ENE,70,13.0,17.0,99,0.00,,,0.01,,2013-05-27 14:21:00,
2013-05-27 09:32:00,56.0,55.0,-100.00,ENE,60,8.0,13.0,99,0.00,,,0.01,,2013-05-27 14:32:00,
2013-05-27 09:51:00,56.0,55.0,-100.00,ENE,65,14.0,17.0,99,0.00,,,0.01,,2013-05-27 14:51:00,
2013-05-27 10:11:00,56.0,55.0,-100.00,ENE,75,16.0,21.0,99,0.00,,,0.01,,2013-05-27 15:11:00,
2013-05-27 10:21:00,56.0,55.0,-100.00,ENE,75,14.0,19.0,99,0.00,,,0.01,,2013-05-27 15:21:00,
2013-05-27 10:33:00,56.0,55.0,-100.00,East,80,16.0,20.0,99,0.00,,,0.01,,2013-05-27 15:33:00,
2013-05-27 10:43:00,56.0,55.0,-100.00,ENE,75,17.0,21.0,99,0.00,,,0.01,,2013-05-27 15:43:00,
2013-05-27 11:12:00,56.0,55.0,-100.00,ENE,70,16.0,20.0,99,0.00,,,0.01,,2013-05-27 16:12:00,
2013-05-27 11:33:00,58.0,57.0,-100.00,ENE,75,17.0,22.0,99,0.00,,,0.01,,2013-05-27 16:33:00,
2013-05-27 11:52:00,57.0,57.0,-100.00,East,95,16.0,18.0,99,0.00,,,0.01,,2013-05-27 16:52:00,
2013-05-27 12:02:00,57.0,57.0,-100.00,East,90,14.0,20.0,99,0.00,,,0.01,,2013-05-27 17:02:00,
2013-05-27 12:11:00,57.0,57.0,-100.00,East,95,15.0,17.0,99,0.00,,,0.01,,2013-05-27 17:11:00,
2013-05-27 12:22:00,57.0,57.0,-100.00,East,95,16.0,21.0,99,0.00,,,0.01,,2013-05-27 17:22:00,
2013-05-27 15:01:00,57.0,57.0,-100.00,ENE,75,7.0,11.0,99,0.00,,,0.01,,2013-05-27 20:01:00,
2013-05-27 15:11:00,57.0,57.0,-100.00,East,80,9.0,11.0,99,0.00,,,0.01,,2013-05-27 20:11:00,
2013-05-27 15:22:00,57.0,57.0,-100.00,ENE,65,7.0,10.0,99,0.00,,,0.01,,2013-05-27 20:22:00,
2013-05-27 15:32:00,57.0,57.0,-100.00,ENE,65,7.0,9.0,99,0.00,,,0.01,,2013-05-27 20:32:00,
2013-05-27 15:42:00,57.0,57.0,-100.00,ENE,70,7.0,10.0,99,0.00,,,0.01,,2013-05-27 20:42:00,
2013-05-27 15:52:00,57.0,57.0,-100.00,ENE,65,9.0,14.0,99,0.00,,,0.01,,2013-05-27 20:52:00,
2013-05-27 17:02:00,57.0,57.0,-100.00,NE,55,11.0,13.0,99,0.00,,,0.01,,2013-05-27 22:02:00,
2013-05-27 17:12:00,57.0,57.0,-100.00,ENE,60,10.0,13.0,99,0.00,,,0.01,,2013-05-27 22:12:00,
2013-05-27 17:22:00,57.0,57.0,-100.00,NE,50,12.0,16.0,99,0.00,,,0.01,,2013-05-27 22:22:00,
2013-05-27 17:32:00,57.0,57.0,-100.00,NE,55,12.0,17.0,99,0.00,,,0.01,,2013-05-27 22:32:00,
2013-05-27 18:42:00,56.0,55.0,-100.00,ENE,75,17.0,21.0,99,0.00,,,0.01,,2013-05-27 23:42:00,
2013-05-27 18:52:00,56.0,55.0,-100.00,ENE,70,15.0,18.0,99,0.00,,,0.01,,2013-05-27 23:52:00,
2013-05-27 19:52:00,56.0,55.0,-100.00,ENE,65,12.0,16.0,99,0.00,,,0.01,,2013-05-28 00:52:00,
2013-05-27 20:01:00,56.0,55.0,-100.00,ENE,70,14.0,18.0,99,0.00,,,0.01,,2013-05-28 01:01:00,
2013-05-27 20:11:00,56.0,55.0,-100.00,ENE,60,11.0,15.0,99,0.00,,,0.01,,2013-05-28 01:11:00,
2013-05-27 20:21:00,56.0,55.0,-100.00,ENE,65,14.0,19.0,99,0.00,,,0.01,,2013-05-28 01:21:00,
2013-05-27 20:32:00,56.0,55.0,-100.00,ENE,60,14.0,17.0,99,0.00,,,0.01,,2013-05-28 01:32:00,
2013-05-27 20:41:00,56.0,55.0,-100.00,ENE,70,14.0,17.0,99,0.00,,,0.01,,2013-05-28 01:41:00,
2013-05-27 20:52:00,56.0,55.0,-100.00,ENE,70,12.0,15.0,100,0.00,,,0.01,,2013-05-28 01:52:00,
2013-05-27 21:02:00,56.0,55.0,-100.00,ENE,75,12.0,14.0,99,0.00,,,0.01,,2013-05-28 02:02:00,
2013-05-27 21:11:00,56.0,55.0,-100.00,ENE,75,12.0,16.0,99,0.00,,,0.01,,2013-05-28 02:11:00,
2013-05-27 21:21:00,56.0,55.0,-100.00,ENE,75,11.0,15.0,99,0.00,,,0.01,,2013-05-28 02:21:00,
2013-05-27 21:32:00,56.0,55.0,-100.00,East,100,9.0,13.0,99,0.00,,,0.01,,2013-05-28 02:32:00,
2013-05-27 21:42:00,56.0,55.0,-100.00,East,95,9.0,12.0,99,0.00,,,0.01,,2013-05-28 02:42:00,
2013-05-27 21:51:00,56.0,55.0,-100.00,ENE,75,11.0,14.0,99,0.00,,,0.01,,2013-05-28 02:51:00,
2013-05-27 22:01:00,56.0,55.0,-100.00,ENE,70,11.0,14.0,99,0.00,,,0.01,,2013-05-28 03:01:00,
2013-05-27 22:11:00,56.0,55.0,-100.00,ENE,65,10.0,12.0,99,0.00,,,0.01,,2013-05-28 03:11:00,
2013-05-27 22:21:00,56.0,55.0,-100.00,ENE,70,11.0,14.0,99,0.00,,,0.01,,2013-05-28 03:21:00,
2013-05-27 22:33:00,56.0,55.0,-100.00,ENE,70,9.0,12.0,99,0.00,,,0.01,,2013-05-28 03:33:00,
2013-05-27 22:43:00,56.0,55.0,-100.00,ENE,70,9.0,12.0,99,0.00,,,0.01,,2013-05-28 03:43:00,
2013-05-27 22:53:00,56.0,55.0,-100.00,ENE,70,8.0,12.0,99,0.00,,,0.01,,2013-05-28 03:53:00,
2013-05-27 23:02:00,56.0,55.0,-100.00,ENE,75,8.0,12.0,99,0.00,,,0.01,,2013-05-28 04:02:00,
2013-05-27 23:12:00,56.0,55.0,-100.00,ENE,75,10.0,11.0,99,0.00,,,0.01,,2013-05-28 04:12:00,
2013-05-27 23:22:00,56.0,55.0,-100.00,ENE,65,9.0,12.0,99,0.00,,,0.01,,2013-05-28 04:22:00,
2013-05-27 23:33:00,56.0,55.0,-100.00,ENE,70,7.0,11.0,99,0.00,,,0.01,,2013-05-28 04:33:00,
2013-05-27 23:42:00,56.0,55.0,-100.00,ENE,65,10.0,12.0,99,0.00,,,0.01,,2013-05-28 04:42:00,
2013-05-27 23:52:00,56.0,55.0,-100.00,ENE,70,11.0,12.0,99,0.00,,,0.01,,2013-05-28 04:52:00,